KUIPER-00262

Last updated on Sun Mar 15 2026 00:02:06 GMT+0000 (Coordinated Universal Time)

1 67788U 26030AA 26073.55818608 .00048025 00000+0 13106-2 0 9997 2 67788 51.8806 195.4576 0000611 21.1785 338.9227 15.36956178 5847
UTC large
Height (km)
Speed (km/s)
/
Latitude / Longitude
Inclination (degrees)
Orbital Period (minutes)
Azimuth
Elevation
Range (km)
Doppler Factor

Next 0 passes for location: London (51.5072 / 0.1276)

Sorry there are no passes over London.